Location: Dugenta
(41.1333°N, 14.4500°E)
Time: 13:38:35
(UTC+00:00)

Cosmos 968 Rocket - Pass Details

Date: 03 March 2021
Orbit: 740 x 771 km, 74.0° (Epoch: 20 April)

Event Time Altitude Azimuth Distance (km) Brightness Sun altitude
Rises 17:50:13 0° 339° (NNW) 3,248 7.1 -11.1°
Reaches altitude 10° 17:52:36 10° 338° (NNW) 2,320 6.3 -11.5°
Maximum altitude 17:57:52 77° 253° (WSW) 796 3.7 -12.5°
Drops below altitude 10° 18:03:06 10° 168° (SSE) 2,306 5.8 -13.5°
Sets 18:05:27 0° 167° (SSE) 3,226 6.6 -14.0°
